Weather History for KGRD - February, 2014

Change the Weather History Date:

Friday, February 14, 2014

  Actual Average (KAND) Record (KAND)
Temperature  
Mean Temperature 42 °F -  
Max Temperature 51 °F 58 °F 80 °F (1962)
Min Temperature 34 °F 34 °F 15 °F (1968)
Degree Days  
Heating Degree Days 22    
Moisture  
Dew Point 29 °F    
Average Humidity 59    
Maximum Humidity 75    
Minimum Humidity 43    
Precipitation  
Precipitation 0.00 in - - ()
Sea Level Pressure  
Sea Level Pressure 29.83 in    
Wind  
Wind Speed 10 mph (SW)    
Max Wind Speed 15 mph    
Max Gust Speed 21 mph    
Visibility 10 miles    
Events      
Averages and records for this station are not official NWS values.
T = Trace of Precipitation, MM = Missing Value Source: NWS Daily Summary

Daily Weather History Graph

Daily Weather History Graph

Search for Another Location

Airport or City:

Trip Planner

Search our weather history database for the weather conditions in past years. The results will help you decide how hot, cold, wet, or windy it might be!

Date:

Astronomy

Feb. 14, 2014 Rise Set
Actual Time 7:14 AM EST 6:11 PM EST
Civil Twilight 6:48 AM EST 6:37 PM EST
Nautical Twilight 6:19 AM EST 7:06 PM EST
Astronomical Twilight 5:50 AM EST 7:35 PM EST
Moon 6:11 PM EST (2/14) 6:42 AM EST (2/14)
Length of Visible Light 11h 48m
Length of Day
10h 56m
Full, 100% of the Moon is Illuminated
Feb 14
Full
Feb 14
Full
Feb 22
Last Quarter
Mar 1
New
Mar 8
First Quarter

Hourly Weather History & Observations

Time (EST) Temp. Windchill Dew Point Humidity Pressure Visibility Wind Dir Wind Speed Gust Speed Precip Events Conditions
12:56 AM 37.9 °F 30.5 °F 26.1 °F 62% 29.83 in 10.0 mi WSW 11.5 mph 20.7 mph N/A   Clear
1:56 AM 37.9 °F 30.9 °F 26.1 °F 62% 29.84 in 10.0 mi WSW 10.4 mph - N/A   Clear
2:56 AM 37.9 °F 30.0 °F 26.1 °F 62% 29.84 in 10.0 mi WSW 12.7 mph - N/A   Clear
3:56 AM 37.9 °F 32.1 °F 27.0 °F 65% 29.84 in 10.0 mi WSW 8.1 mph - N/A   Clear
4:56 AM 37.0 °F 29.8 °F 27.0 °F 67% 29.86 in 10.0 mi WSW 10.4 mph - N/A   Clear
5:56 AM 35.1 °F 27.9 °F 27.0 °F 72% 29.87 in 10.0 mi WSW 9.2 mph - N/A   Clear
6:56 AM 34.0 °F 26.6 °F 27.0 °F 75% 29.87 in 10.0 mi WSW 9.2 mph - N/A   Clear
7:56 AM 34.0 °F 27.2 °F 27.0 °F 75% 29.89 in 10.0 mi WSW 8.1 mph - N/A   Clear
8:56 AM 37.0 °F 30.4 °F 28.0 °F 70% 29.89 in 10.0 mi WSW 9.2 mph - N/A   Clear
9:56 AM 41.0 °F 35.8 °F 28.0 °F 60% 29.89 in 10.0 mi SW 8.1 mph - N/A   Clear
10:56 AM 44.1 °F 37.7 °F 28.9 °F 55% 29.89 in 10.0 mi SW 12.7 mph - N/A   Clear
11:56 AM 48.0 °F - 28.9 °F 48% 29.88 in 10.0 mi SW 9.2 mph - N/A   Clear
12:56 PM 48.9 °F - 28.9 °F 46% 29.87 in 10.0 mi WSW 13.8 mph - N/A   Clear
1:56 PM 50.0 °F - 28.9 °F 44% 29.86 in 10.0 mi SW 8.1 mph - N/A   Clear
2:56 PM 51.1 °F - 28.9 °F 43% 29.83 in 10.0 mi SW 15.0 mph - N/A   Clear
3:56 PM 51.1 °F - 30.0 °F 44% 29.82 in 10.0 mi SW 15.0 mph 20.7 mph N/A   Clear
4:56 PM 51.1 °F - 30.9 °F 46% 29.82 in 10.0 mi SW 11.5 mph - N/A   Clear
5:56 PM 48.0 °F - 32.0 °F 54% 29.81 in 10.0 mi SSW 5.8 mph - N/A   Clear
6:56 PM 46.9 °F - 33.1 °F 59% 29.79 in 10.0 mi South 5.8 mph - N/A   Clear
7:56 PM 46.9 °F - 32.0 °F 56% 29.77 in 10.0 mi South 4.6 mph - N/A   Clear
8:56 PM 46.9 °F - 33.1 °F 59% 29.77 in 10.0 mi SSW 10.4 mph - N/A   Clear
9:56 PM 48.0 °F - 33.1 °F 56% 29.76 in 10.0 mi SSW 10.4 mph - N/A   Mostly Cloudy
10:56 PM 46.9 °F - 34.0 °F 61% 29.72 in 10.0 mi SSW 8.1 mph - N/A   Scattered Clouds
11:56 PM 46.9 °F - 35.1 °F 63% 29.70 in 10.0 mi SSW 9.2 mph - N/A   Overcast